Terminal Aerodrome Forecast
Issued by NWS Boise, ID

Home | Current Version | Previous Version | Text Only | Print | Product List | Glossary On
Versions: 1 2 3 4 5 6 7 8 9 10 11 12 13 14 15 16 17 18 19 20 21 22 23 24 25 26 27 28 29 30 31 32 33 34 35 36 37 38 39 40 41 42
000
FTUS45 KBOI 201120
TAFBOI
TAF
KBOI 201120Z 2012/2112 13012KT P6SM BKN070
     FM202200 13015KT P6SM -SHRA SCT030 OVC050
     FM210200 14013KT 6SM -SHRA BR SCT015 OVC025
     FM210500 13011KT 3SM -SHSN BR OVC015=

USA.gov is the U.S. government's official web portal to all federal, state and local government web resources and services.